{"data":{"norad_id":57993,"epoch":"2026-05-24T23:24:12.286944Z","epoch_age_seconds":71014,"freshness":"FRESH","line1":"1 57993U 23153C   26144.97514221 -.00000252  00000+0  37278-6 0  9997","line2":"2 57993  43.0061 356.2039 0001529 269.2081  90.8596 15.27578569146566","mean_motion":15.27578569,"eccentricity":0.0001529,"inclination_deg":43.0061,"raan_deg":356.2039,"arg_perigee_deg":269.2081,"mean_anomaly_deg":90.8596,"bstar":3.7278e-7,"rev_number":14656,"period_min":94.266837020545,"perigee_km":482.00430496255,"apogee_km":484.10245698105,"semimajor_km":6861.1903809718,"source":"CELESTRAK","updated_at":"2026-05-25T13:38:18.489781Z"}}